EW4885 Weather Reports


time (UTC)temp
C
wind
direction
speed
KPH
gust
KPH
rain 1hr
cm
rain 24hr
cm
rain mn
cm
humidity
%
barometer
mb
20260507033013 8 138 1.6 4.8 0.00 3.12 0.03 96 1012.9
20260507031521 8 167 0.0 0.0 0.00 3.12 0.03 96 1013.1
20260507030013 8 167 0.0 0.0 0.00 3.12 0.03 96 1013.0
20260507024513 8 167 0.0 0.0 0.00 3.12 0.03 96 1013.0
20260507023009 8 167 0.0 0.0 0.00 3.12 0.03 96 1013.0
20260507021508 8 167 0.0 0.0 0.00 3.12 0.03 96 1012.8
20260507020008 8 167 0.0 0.0 0.00 3.12 0.03 96 1012.7
20260507014515 8 167 0.0 0.0 0.03 3.12 0.03 96 1012.7
20260507013005 8 167 0.0 0.0 0.03 3.12 0.03 96 1012.7
20260507011506 8 167 0.0 0.0 0.03 3.12 0.03 95 1012.6
20260507010003 9 167 0.0 0.0 0.03 3.15 0.03 96 1012.6
20260507004505 9 167 0.0 0.0 0.00 3.12 0.00 96 1012.6
20260507003001 9 167 0.0 3.2 0.00 3.12 0.00 96 1012.6
20260507001602 9 167 1.6 4.8 0.00 3.12 0.00 96 1012.5
20260507000058 9 192 0.0 3.2 0.00 3.12 0.00 96 1012.4
20260506234602 9 214 0.0 0.0 0.00 3.12 0.00 96 1012.4
20260506233059 9 214 0.0 1.6 0.00 3.12 0.00 96 1012.4
20260506231559 9 215 0.0 1.6 0.00 3.12 0.00 96 1012.4
20260506230057 9 214 0.0 3.2 0.00 3.12 0.00 96 1012.3
20260506224551 9 213 1.6 4.8 0.00 3.12 0.00 95 1012.1
20260506223055 9 259 0.0 1.6 0.00 3.12 0.00 95 1012.0
20260506221548 9 259 0.0 1.6 0.00 3.12 0.00 95 1011.9
20260506220047 9 259 0.0 3.2 0.00 3.12 0.00 95 1011.8
20260506214545 9 259 0.0 3.2 0.03 3.25 3.12 95 1011.9
20260506213102 9 298 0.0 0.0 0.03 3.25 3.12 95 1011.8
20260506211602 9 299 0.0 4.8 0.03 3.25 3.12 95 1011.9
20260506210043 9 126 0.0 1.6 0.03 3.25 3.12 94 1011.8
20260506204546 9 126 0.0 4.8 0.00 3.23 3.10 95 1011.7
20260506203041 9 125 3.2 6.4 0.00 3.23 3.10 95 1011.5
20260506201550 9 99 3.2 4.8 0.00 3.23 3.10 94 1011.5
20260506200034 9 61 1.6 4.8 0.00 3.23 3.10 94 1011.4
20260506194533 10 94 1.6 4.8 0.13 3.25 3.10 94 1011.4
20260506193031 10 49 1.6 4.8 0.33 3.25 3.10 94 1011.4
20260506191556 10 118 1.6 8.0 0.43 3.25 3.10 94 1011.2
20260506190055 10 224 3.2 9.7 0.46 3.25 3.10 94 1011.0
20260506184606 10 147 3.2 11.3 0.33 3.23 2.97 93 1010.9
20260506183057 10 238 4.8 11.3 0.15 3.00 2.77 92 1011.0
20260506181543 10 39 4.8 9.7 0.05 2.87 2.67 91 1010.7
20260506180047 10 22 4.8 11.3 0.03 2.84 2.64 90 1010.4
20260506174542 11 15 8.0 12.9 0.03 2.92 2.64 88 1010.2
20260506173048 11 351 14.5 22.5 0.00 2.90 2.62 84 1010.0
20260506171540 13 307 6.4 12.9 0.00 2.90 2.62 79 1009.7
20260506170055 14 348 3.2 8.0 0.00 2.90 2.62 76 1009.5
20260506164538 15 217 0.0 4.8 0.00 2.90 2.62 74 1009.3
20260506163039 15 182 4.8 9.7 0.00 2.90 2.62 72 1009.1
20260506161540 15 216 3.2 6.4 0.00 2.90 2.62 71 1009.2
20260506160040 16 171 4.8 11.3 0.00 2.90 2.62 69 1009.2
20260506154534 15 169 6.4 14.5 0.00 2.90 2.62 70 1009.1
20260506153029 15 153 3.2 11.3 0.00 2.90 2.62 74 1009.1
20260506151529 15 115 6.4 12.9 0.00 2.90 2.62 78 1009.2
20260506150027 15 151 8.0 16.1 0.00 2.90 2.62 76 1009.3
20260506144524 14 191 6.4 14.5 0.00 2.92 2.62 79 1009.3
20260506143030 14 144 9.7 17.7 0.00 2.92 2.62 81 1009.3
20260506141520 13 161 8.0 14.5 0.00 2.92 2.62 84 1009.6
20260506140017 13 160 4.8 14.5 0.00 2.92 2.62 87 1009.7
20260506134513 12 155 6.4 16.1 0.00 3.23 2.62 89 1009.8
20260506133012 12 144 8.0 19.3 0.00 3.23 2.62 89 1009.9
20260506131512 12 130 9.7 19.3 0.00 3.23 2.62 89 1010.0
20260506130014 12 197 8.0 19.3 0.00 3.23 2.62 91 1010.0
20260506124510 12 169 9.7 19.3 0.00 3.23 2.62 90 1009.9
20260506123010 12 146 9.7 16.1 0.00 3.23 2.62 91 1009.8
20260506121510 12 149 4.8 14.5 0.03 3.23 2.62 91 1009.9
20260506120008 12 199 8.0 16.1 0.03 3.23 2.62 92 1010.0
20260506114506 12 196 8.0 16.1 0.03 3.23 2.62 94 1010.0
20260506113007 11 180 8.0 17.7 0.03 3.20 2.59 95 1010.1
20260506111503 10 178 8.0 19.3 0.05 3.20 2.59 95 1010.2
20260506110002 11 159 8.0 20.9 0.13 3.20 2.59 96 1010.2
20260506104601 10 144 6.4 11.3 0.18 3.20 2.59 96 1010.2
20260506103105 10 162 4.8 14.5 0.23 3.17 2.59 96 1010.2
20260506101553 10 184 6.4 16.1 0.33 3.15 2.57 96 1010.1
20260506100051 10 146 4.8 11.3 0.33 3.07 2.49 95 1010.0
20260506094550 10 176 6.4 14.5 0.36 3.02 2.41 95 1009.9
20260506093047 10 167 8.0 12.9 0.36 2.92 2.34 96 1009.8
20260506091547 10 180 6.4 14.5 0.33 2.82 2.21 95 1009.6
20260506090050 10 181 6.4 16.1 0.33 2.74 2.13 95 1009.3
20260506084559 10 163 6.4 11.3 0.33 2.69 2.06 95 1009.2
20260506083043 10 175 4.8 9.7 0.36 2.62 1.98 95 1008.9
20260506081542 10 200 3.2 9.7 0.38 2.54 1.91 95 1008.8
20260506073035 10 219 3.2 11.3 0.46 2.26 1.63 96 1008.3
20260506071535 10 197 4.8 11.3 0.48 2.16 1.52 96 1008.1
20260506061545 10 213 8.0 16.1 0.48 1.70 1.04 95 1007.2
20260506044524 10 226 0.0 4.8 0.38 1.09 0.43 95 1006.6
20260506043035 10 192 0.0 4.8 0.33 1.02 0.33 95 1006.7
20260506041521 10 181 3.2 6.4 0.23 0.91 0.23 94 1006.7
20260506040019 10 173 4.8 6.4 0.10 0.79 0.13 94 1006.9
20260506034517 10 210 1.6 4.8 0.03 0.76 0.05 94 1006.9